TimeEST,TemperatureF,Dew PointF,Humidity,Sea Level PressureIn,VisibilityMPH,Wind Direction,Wind SpeedMPH,Gust SpeedMPH,PrecipitationIn,Events,Conditions,WindDirDegrees,DateUTC
12:54 AM,57.0,46.0,67,30.03,10.0,SSE,8.1,-,N/A,,Clear,150,2011-11-09 05:54:00
1:54 AM,55.9,46.0,69,30.02,10.0,SSE,8.1,-,N/A,,Clear,160,2011-11-09 06:54:00
2:54 AM,55.9,46.0,69,30.00,10.0,SSE,10.4,-,N/A,,Clear,150,2011-11-09 07:54:00
3:54 AM,55.0,46.0,72,29.99,10.0,SSE,9.2,-,N/A,,Clear,150,2011-11-09 08:54:00
4:54 AM,55.9,46.9,72,29.98,10.0,SSE,11.5,-,N/A,,Clear,150,2011-11-09 09:54:00
5:54 AM,57.9,46.9,67,29.96,10.0,South,17.3,23.0,N/A,,Mostly Cloudy,170,2011-11-09 10:54:00
6:54 AM,57.9,48.0,70,29.94,10.0,SSE,15.0,-,N/A,,Mostly Cloudy,160,2011-11-09 11:54:00
7:54 AM,57.9,48.0,70,29.94,10.0,South,16.1,25.3,N/A,,Mostly Cloudy,170,2011-11-09 12:54:00
8:54 AM,59.0,48.9,69,29.94,10.0,South,16.1,-,N/A,,Clear,180,2011-11-09 13:54:00
9:54 AM,62.1,50.0,65,29.92,10.0,South,20.7,33.4,N/A,,Scattered Clouds,180,2011-11-09 14:54:00
10:54 AM,64.0,51.1,63,29.90,10.0,South,20.7,26.5,N/A,,Mostly Cloudy,180,2011-11-09 15:54:00
11:54 AM,64.9,52.0,63,29.88,10.0,South,24.2,32.2,N/A,,Overcast,190,2011-11-09 16:54:00
12:54 PM,63.0,54.0,72,29.88,10.0,SSW,21.9,32.2,0.00,Rain,Light Rain,210,2011-11-09 17:54:00
1:15 PM,60.8,55.4,82,29.89,5.0,SSW,16.1,27.6,0.00,Rain,Light Rain,210,2011-11-09 18:15:00
1:36 PM,60.8,55.4,82,29.89,10.0,SW,10.4,25.3,0.01,,Overcast,220,2011-11-09 18:36:00
1:54 PM,60.1,55.9,86,29.88,10.0,SSW,12.7,-,0.01,,Overcast,210,2011-11-09 18:54:00
2:25 PM,60.8,57.2,88,29.88,4.0,SSW,16.1,23.0,0.00,Rain,Light Rain,200,2011-11-09 19:25:00
2:27 PM,60.8,57.2,88,29.88,2.0,SSW,16.1,-,0.00,Rain,Light Rain,200,2011-11-09 19:27:00
2:34 PM,59.0,57.2,94,29.88,2.5,South,17.3,-,0.00,Rain,Light Rain,190,2011-11-09 19:34:00
2:38 PM,59.0,57.2,94,29.88,1.8,SSW,16.1,-,0.01,Rain,Heavy Rain,200,2011-11-09 19:38:00
2:54 PM,59.0,57.9,96,29.88,2.0,SW,10.4,-,0.07,Rain,Light Rain,230,2011-11-09 19:54:00
3:03 PM,59.0,57.2,94,29.89,10.0,SW,16.1,21.9,0.00,Rain,Light Rain,220,2011-11-09 20:03:00
3:32 PM,59.0,55.4,88,29.89,10.0,SW,23.0,31.1,0.00,,Overcast,230,2011-11-09 20:32:00
3:54 PM,60.1,55.0,83,29.90,10.0,SW,12.7,21.9,0.00,,Mostly Cloudy,230,2011-11-09 20:54:00
4:54 PM,57.9,46.9,67,29.92,10.0,West,17.3,27.6,N/A,,Mostly Cloudy,270,2011-11-09 21:54:00
5:54 PM,53.6,44.6,72,29.97,10.0,West,17.3,26.5,N/A,,Scattered Clouds,270,2011-11-09 22:54:00
6:54 PM,50.0,41.0,71,30.01,10.0,WNW,18.4,27.6,N/A,,Clear,290,2011-11-09 23:54:00
7:54 PM,45.0,36.0,71,30.05,10.0,West,11.5,18.4,N/A,,Clear,280,2011-11-10 00:54:00
8:54 PM,44.6,35.6,71,30.08,10.0,West,11.5,19.6,N/A,,Overcast,280,2011-11-10 01:54:00
9:54 PM,44.1,33.1,65,30.10,10.0,WNW,15.0,-,N/A,,Overcast,300,2011-11-10 02:54:00
10:54 PM,43.0,33.1,68,30.11,10.0,WNW,12.7,-,N/A,,Overcast,290,2011-11-10 03:54:00
11:54 PM,43.0,32.0,65,30.12,10.0,WNW,11.5,-,N/A,,Overcast,300,2011-11-10 04:54:00